[[{"header":{"parameterUnit":"m.s-1","parameterCategory":1,"la1":30.2991,"la2":30.254,"lo1":-89.0895,"lo2":-89.0444,"dy":0.0017,"dx":0.0017,"nx":28,"ny":28,"refTime":"2025-03-24T21:00:00:Z","depth":0,"parameterNumber":2,"parameterNumberName":"U-component_of_WINDS"},"data":[0,0,0,0,0,0,0,0,0,0,0,0,0,0,0,0,0,0,0,0,0,0,0,0,0,0,0,0,0,0,0,0,0,0,0,0,0,0,0,0,0,0,0,0,0,0,0,0,0,0,0,0,0,0,0,0,0,0,2.0716,2.0717,0,2.0854,2.0855,2.0857,2.0871,2.087,2.0868,2.0867,2.1013,2.1018,2.1023,0,0,0,0,0,0,0,0,0,0,0,0,0,2.0468,2.0473,2.0715,2.0717,2.0719,2.0854,2.0855,2.0857,2.0871,2.087,2.0868,2.0866,2.1011,2.1017,2.1024,0,0,0,0,0,0,0,0,0,0,0,0,0,2.0588,2.0474,2.0715,2.0742,2.0746,2.0853,2.0856,2.0858,2.0872,2.087,2.0868,2.0866,2.1009,2.1017,2.1025,2.1116,0,0,2.1049,2.1052,0,0,0,0,0,0,0,0,2.0581,2.0597,2.0736,2.074,2.0745,2.0843,2.0822,2.0945,2.0872,2.0824,2.0867,2.0864,2.0958,2.097,2.1001,2.1123,2.1129,2.1049,2.1054,2.1057,2.106,0,0,0,0,0,0,0,2.0573,2.0591,2.077,2.0738,2.0744,2.0749,2.0763,2.0845,2.0902,2.0828,2.0829,2.0845,2.096,2.0994,2.1005,2.1131,2.1049,2.1056,2.1061,2.1064,2.1337,2.1339,0,0,0,0,0,0,2.0559,2.0584,2.0766,2.0774,2.0656,2.0755,2.0771,2.0814,2.0901,2.0912,2.0847,2.0846,2.0981,2.0996,2.101,2.1123,2.1057,2.1065,2.1069,2.1334,2.1337,2.134,0,0,0,0,0,0,2.0554,2.0575,2.076,2.068,2.0704,2.0761,2.0809,2.0818,2.0851,2.0915,2.0926,2.087,2.098,2.0999,2.109,2.1129,2.1068,2.1075,2.1331,2.1335,2.1339,2.1351,0,0,0,0,0,0,2.0547,2.0573,2.0607,2.068,2.0708,2.0836,2.0811,2.0822,2.0864,2.0863,2.094,2.095,2.098,2.1078,2.1097,2.1138,2.1081,2.1328,2.1333,2.1337,2.1347,2.1354,2.1361,0,0,0,0,0,2.0538,2.0606,2.0609,2.0631,2.0751,2.0838,2.0854,2.0885,2.0867,2.0902,2.0944,2.0948,2.1121,2.1087,2.1109,2.1153,2.1326,2.1331,2.1337,2.1344,2.1353,2.1361,0,0,0,0,0,0,2.0537,2.0616,2.062,2.0713,2.0769,2.084,2.0886,2.0894,2.0957,2.0954,2.0991,2.1008,2.1098,2.1135,2.1095,2.1247,2.1222,2.1232,2.1219,2.1229,2.1235,2.1225,2.1088,0,0,0,0,0,2.0547,2.0609,2.0676,2.0752,2.0779,2.0828,2.0867,2.0886,2.0946,2.097,2.1018,2.1077,2.1145,2.1189,2.1255,2.1353,2.137,2.1394,2.1401,2.1406,2.1415,2.1471,2.1482,2.1359,2.1359,2.1359,0,0,2.0569,2.062,2.0658,2.0753,2.0798,2.0863,2.0848,2.0917,2.0967,2.0981,2.1069,2.1107,2.1175,2.127,2.1314,2.1304,2.1453,2.1413,2.1417,2.1423,2.1478,2.1489,2.15,2.1363,2.1362,2.1361,0,0,2.0644,2.0688,2.0757,2.0802,2.0871,2.0903,2.0919,2.099,2.1015,2.1104,2.1117,2.1177,2.1293,2.1341,2.1381,2.1475,2.1482,2.1496,2.1532,2.1586,2.1596,2.1604,2.1639,2.1651,2.1504,2.1505,2.1505,0,2.0664,2.0761,2.0791,2.0861,2.0903,2.0918,2.0989,2.1032,2.1119,2.1149,2.1135,2.1281,2.1328,2.1435,2.1458,2.149,2.1511,2.1487,2.1591,2.1601,2.1609,2.1643,2.1655,2.1506,2.1506,2.1506,2.1505,0,2.0782,2.085,2.0897,2.098,2.1027,2.1097,2.114,2.1185,2.12,2.1235,2.1326,2.1383,2.1461,2.1488,2.1505,2.1599,2.159,2.1583,2.1559,2.1622,2.1654,2.1667,2.1508,2.1507,2.1507,2.1506,0,0,2.0859,2.0958,2.0975,2.1013,2.109,2.1144,2.1215,2.129,2.1329,2.1389,2.145,2.1549,2.1543,2.1589,2.1611,2.1658,2.173,2.1647,2.1649,2.1661,2.1839,2.1843,2.1857,2.1735,2.1738,2.174,2.1833,0,2.0943,2.1068,2.1098,2.1206,2.127,2.1286,2.1348,2.1403,2.1438,2.1498,2.1537,2.1606,2.1593,2.1621,2.1668,2.1711,2.1767,2.1705,2.1795,2.1797,2.1777,2.1874,2.1878,2.1963,2.1846,2.1848,2.1849,0,2.1056,2.1118,2.1232,2.1301,2.1329,2.1384,2.1457,2.1514,2.1577,2.1599,2.165,2.1668,2.1745,2.1716,2.1823,2.1781,2.182,2.1847,2.1851,2.186,2.1827,2.1886,2.1991,2.2004,2.1869,2.1868,2.1866,0,2.1102,2.1213,2.1296,2.1328,2.1411,2.145,2.1487,2.1548,2.1592,2.1655,2.1685,2.1757,2.1797,2.1853,2.1891,2.1866,2.1996,2.197,2.2017,2.2016,2.2043,2.2041,2.2156,2.2068,2.2068,2.2068,2.2067,0,2.1192,2.1261,2.1317,2.1368,2.1447,2.1482,2.156,2.1597,2.1652,2.1712,2.1731,2.1787,2.1833,2.1896,2.1926,2.2011,2.2029,2.205,2.2057,2.2049,2.2046,2.2074,2.207,2.2071,2.207,2.207,2.2069,0,2.1256,2.1296,2.1387,2.1458,2.1478,2.1533,2.1595,2.1646,2.1681,2.1757,2.1777,2.1832,2.1908,2.1951,2.2046,2.2066,2.2161,2.2165,2.2139,2.2142,2.2187,2.2182,2.2324,2.2345,2.2243,2.2244,2.2244,0,2.131,2.1364,2.1441,2.1481,2.1518,2.1584,2.1629,2.1666,2.1712,2.1789,2.1831,2.1908,2.197,2.2091,2.2141,2.2214,2.2221,2.2265,2.2232,2.2221,2.2222,2.2218,2.2224,2.2271,2.2272,2.2273,2.2273,0,2.1404,2.1421,2.1483,2.1554,2.1606,2.1663,2.172,2.1753,2.1801,2.1852,2.1928,2.1977,2.2074,2.215,2.2228,2.2268,2.2279,2.2284,2.2298,2.229,2.2273,2.2283,2.2155,2.228,2.2279,2.2279,2.2279,2.2278,2.1465,2.1514,2.1575,2.1645,2.1692,2.1745,2.1796,2.1838,2.1901,2.1982,2.2001,2.2082,2.2146,2.2252,2.2294,2.2359,2.2351,2.2372,2.2378,2.2383,2.2384,2.2262,2.2373,2.2373,2.2373,2.2373,2.2373,0,2.156,2.16,2.1664,2.1742,2.1798,2.1802,2.1866,2.1912,2.1983,2.2041,2.2102,2.2191,2.2265,2.2321,2.2397,2.2439,2.2446,2.2458,2.2455,2.2465,2.2387,2.2366,2.2451,2.2451,2.2451,2.2451,2.2451,2.2451,2.1616,2.1698,2.1723,2.183,2.1871,2.1949,2.1985,2.2035,2.2081,2.2179,2.224,2.2276,2.2334,2.2414,2.2483,2.2498,2.2526,2.2537,2.2552,2.2478,2.247,2.2462,2.2443,2.2542,2.2542,2.2625,2.2625,2.2626]},{"header":{"parameterUnit":"m.s-1","parameterCategory":1,"la1":30.2991,"la2":30.254,"lo1":-89.0895,"lo2":-89.0444,"dy":0.0017,"dx":0.0017,"nx":28,"ny":28,"refTime":"2025-03-24T21:00:00:Z","depth":0,"parameterNumber":3,"parameterNumberName":"V-component_of_WINDS"},"data":[0,0,0,0,0,0,0,0,0,0,0,0,0,0,0,0,0,0,0,0,0,0,0,0,0,0,0,0,0,0,0,0,0,0,0,0,0,0,0,0,0,0,0,0,0,0,0,0,0,0,0,0,0,0,0,0,0,0,-0.9995,-0.9997,0,-1.0153,-1.0155,-1.0156,-1.0213,-1.0213,-1.0212,-1.0212,-1.0377,-1.0382,-1.0387,0,0,0,0,0,0,0,0,0,0,0,0,0,-0.9747,-0.9751,-0.9995,-0.9997,-0.9999,-1.0153,-1.0155,-1.0157,-1.0213,-1.0213,-1.0212,-1.0211,-1.0375,-1.0381,-1.0387,0,0,0,0,0,0,0,0,0,0,0,0,0,-0.9875,-0.9753,-0.9994,-1.0045,-1.0051,-1.0152,-1.0155,-1.0157,-1.0213,-1.0213,-1.0212,-1.0211,-1.0373,-1.0381,-1.0388,-1.0451,0,0,-1.0411,-1.0414,0,0,0,0,0,0,0,0,-0.9868,-0.9884,-1.0036,-1.0042,-1.0049,-1.0162,-1.0128,-1.0256,-1.0214,-1.0152,-1.0212,-1.0211,-1.0307,-1.0319,-1.0351,-1.0458,-1.0466,-1.0411,-1.0416,-1.0419,-1.0421,0,0,0,0,0,0,0,-0.9859,-0.9877,-1.0057,-1.0038,-1.0046,-1.0062,-1.0079,-1.0153,-1.0232,-1.0157,-1.0162,-1.018,-1.031,-1.0344,-1.0355,-1.0468,-1.0411,-1.0418,-1.0422,-1.0425,-1.0638,-1.0639,0,0,0,0,0,0,-0.9841,-0.987,-1.0052,-1.0062,-0.9954,-1.0067,-1.0086,-1.0127,-1.0232,-1.0247,-1.018,-1.0182,-1.0332,-1.0347,-1.0361,-1.0444,-1.0419,-1.0426,-1.043,-1.0637,-1.0638,-1.064,0,0,0,0,0,0,-0.9835,-0.9856,-1.0046,-0.9967,-0.9993,-1.0072,-1.0117,-1.013,-1.0164,-1.0249,-1.0264,-1.02,-1.0331,-1.0351,-1.0429,-1.045,-1.0429,-1.0436,-1.0635,-1.0637,-1.0639,-1.0607,0,0,0,0,0,0,-0.9828,-0.9854,-0.9877,-0.9967,-0.9996,-1.0109,-1.0119,-1.0134,-1.0176,-1.018,-1.0271,-1.0285,-1.0332,-1.0417,-1.0436,-1.046,-1.0442,-1.0634,-1.0636,-1.0638,-1.0606,-1.0607,-1.0608,0,0,0,0,0,-0.9819,-0.9862,-0.9878,-0.99,-1.0027,-1.011,-1.0127,-1.0179,-1.0178,-1.0203,-1.0258,-1.0282,-1.0444,-1.0425,-1.0446,-1.0473,-1.0633,-1.0636,-1.0638,-1.0606,-1.0607,-1.0608,0,0,0,0,0,0,-0.9773,-0.9875,-0.9894,-0.9967,-1.0029,-1.0119,-1.0152,-1.0178,-1.0243,-1.0243,-1.0306,-1.0327,-1.04,-1.0444,-1.042,-1.054,-1.054,-1.0548,-1.0508,-1.051,-1.0511,-1.0499,-1.0448,0,0,0,0,0,-0.9771,-0.9829,-0.9915,-0.9972,-1.0002,-1.0071,-1.0109,-1.0144,-1.0212,-1.0239,-1.0299,-1.0365,-1.0431,-1.0473,-1.0538,-1.0613,-1.0635,-1.0642,-1.0643,-1.0643,-1.0649,-1.0694,-1.0699,-1.0649,-1.0649,-1.0649,0,0,-0.9769,-0.9831,-0.9864,-0.9964,-1.0016,-1.0076,-1.0093,-1.0155,-1.0201,-1.0249,-1.0325,-1.0372,-1.045,-1.0527,-1.0564,-1.0566,-1.0668,-1.0647,-1.0647,-1.0652,-1.0698,-1.0702,-1.0707,-1.065,-1.065,-1.065,0,0,-0.9795,-0.9847,-0.9901,-0.9953,-1.0032,-1.0079,-1.0091,-1.0178,-1.0211,-1.0289,-1.0327,-1.0383,-1.0495,-1.0549,-1.0591,-1.0641,-1.0667,-1.066,-1.0665,-1.0709,-1.0713,-1.0717,-1.0736,-1.0742,-1.0666,-1.0666,-1.0666,0,-0.9782,-0.9872,-0.9926,-0.9986,-1.003,-1.0076,-1.0132,-1.0181,-1.0277,-1.0308,-1.0309,-1.0451,-1.0507,-1.0598,-1.061,-1.0643,-1.0661,-1.065,-1.0707,-1.0712,-1.0716,-1.0736,-1.0742,-1.0664,-1.0664,-1.0665,-1.0665,0,-0.9853,-0.9915,-0.995,-1.0041,-1.0089,-1.0147,-1.0212,-1.0254,-1.0286,-1.0332,-1.0413,-1.0481,-1.0562,-1.0587,-1.0618,-1.0684,-1.0683,-1.0695,-1.0696,-1.0719,-1.0738,-1.0746,-1.0663,-1.0663,-1.0663,-1.0664,0,0,-0.9854,-0.9975,-0.9987,-1.003,-1.0121,-1.0171,-1.0233,-1.0311,-1.0347,-1.0413,-1.0468,-1.0562,-1.0575,-1.0623,-1.0661,-1.0699,-1.0736,-1.0707,-1.071,-1.0711,-1.0815,-1.0806,-1.0813,-1.0754,-1.0755,-1.0757,-1.0809,0,-0.9892,-1.0002,-1.0054,-1.0142,-1.0201,-1.0246,-1.03,-1.0363,-1.041,-1.0468,-1.052,-1.0587,-1.0597,-1.0627,-1.0666,-1.0723,-1.0758,-1.072,-1.0807,-1.0809,-1.0786,-1.0823,-1.0813,-1.0859,-1.0817,-1.0818,-1.0819,0,-0.9952,-1.0017,-1.011,-1.0197,-1.0224,-1.0271,-1.0348,-1.0403,-1.0477,-1.0508,-1.0563,-1.06,-1.0669,-1.0665,-1.0762,-1.0735,-1.0774,-1.0808,-1.0811,-1.0821,-1.0816,-1.0836,-1.0875,-1.0882,-1.0831,-1.083,-1.0829,0,-0.9944,-1.0056,-1.0127,-1.0162,-1.0264,-1.0297,-1.0341,-1.0414,-1.0458,-1.0527,-1.0557,-1.0632,-1.0674,-1.0733,-1.079,-1.0782,-1.0883,-1.0883,-1.0912,-1.0911,-1.0931,-1.0929,-1.0978,-1.0955,-1.0955,-1.0955,-1.0954,0,-0.9983,-1.0038,-1.0125,-1.0169,-1.0234,-1.0293,-1.0357,-1.0405,-1.0469,-1.0525,-1.0569,-1.0621,-1.0693,-1.0755,-1.0801,-1.0875,-1.0893,-1.0922,-1.0934,-1.0918,-1.0915,-1.0945,-1.0944,-1.0956,-1.0956,-1.0956,-1.0955,0,-0.9985,-1.0045,-1.0126,-1.0216,-1.024,-1.0284,-1.0363,-1.0408,-1.0457,-1.0527,-1.0547,-1.0624,-1.0699,-1.0763,-1.0861,-1.0892,-1.097,-1.0983,-1.0944,-1.0951,-1.0977,-1.0974,-1.1047,-1.1061,-1.1027,-1.1027,-1.1027,0,-1.0006,-1.005,-1.0145,-1.0185,-1.0229,-1.0292,-1.0338,-1.04,-1.0446,-1.0534,-1.057,-1.0648,-1.0713,-1.0831,-1.0897,-1.0974,-1.099,-1.1011,-1.1002,-1.0986,-1.0992,-1.0989,-1.0995,-1.1011,-1.1011,-1.1011,-1.1011,0,-1.0037,-1.0065,-1.0128,-1.0203,-1.0256,-1.0318,-1.0382,-1.0413,-1.0486,-1.0537,-1.0613,-1.0664,-1.0765,-1.0843,-1.0927,-1.0975,-1.1007,-1.1014,-1.1025,-1.101,-1.0986,-1.1001,-1.0947,-1.1012,-1.1012,-1.1012,-1.1012,-1.1012,-1.005,-1.0092,-1.0166,-1.0236,-1.0291,-1.0349,-1.0397,-1.0452,-1.0517,-1.0603,-1.0636,-1.0715,-1.0791,-1.0906,-1.0955,-1.1019,-1.1023,-1.1039,-1.1043,-1.1046,-1.1045,-1.0975,-1.1035,-1.1035,-1.1035,-1.1035,-1.1035,0,-1.0084,-1.0135,-1.0198,-1.0286,-1.0342,-1.0365,-1.0438,-1.0483,-1.0552,-1.0619,-1.0683,-1.0772,-1.0849,-1.0921,-1.1002,-1.1039,-1.1056,-1.1058,-1.1057,-1.1068,-1.1035,-1.1018,-1.1044,-1.1044,-1.1044,-1.1044,-1.1044,-1.1044,-1.0109,-1.0182,-1.0219,-1.032,-1.0371,-1.0448,-1.0487,-1.0543,-1.0597,-1.0694,-1.0758,-1.0804,-1.0875,-1.0961,-1.1033,-1.1053,-1.1081,-1.108,-1.1103,-1.1072,-1.107,-1.1068,-1.1053,-1.1085,-1.1085,-1.1131,-1.1131,-1.1132]}]]